Regional Weather Roundup
Issued by NWS

Home | Current Version | Previous Version | Text Only | Print | Product List | Glossary Off
Versions: 1 2 3 4 5 6 7 8 9 10 11 12 13 14 15 16 17 18 19 20 21 22 23 24 25 26 27 28 29 30 31 32 33 34 35 36 37 38 39 40 41 42 43 44 45 46 47 48 49 50

000
ASUS43 KDMX 291106
RWRIA

WEATHER ROUNDUP FOR IOWA
NATIONAL WEATHER SERVICE DES MOINES IA
600 AM CDT THU JUN 29 2017

NOTE: "FAIR" INDICATES FEW OR NO CLOUDS BELOW 12,000 FEET WITH NO
SIGNIFICANT WEATHER AND/OR OBSTRUCTIONS TO VISIBILITY.

* - THESE STATIONS ARE NOT NWS STATIONS...THUS NOT UNDER NWS
QUALITY CONTROL.  THEY ALSO DO NOT REPORT WEATHER SUCH
AS PRECIPITATION OR FOG.

IAZ001>003-012>014-020>022-031>034-043>046-291200-
   NORTHWEST IOWA

CITY           SKY/WX    TMP DP  RH WIND       PRES   REMARKS
CARROLL *      MOCLDY    68  68 100 S7        29.76S
CHEROKEE *     PTCLDY    60  60 100 CALM      29.75F
DENISON *      CLOUDY    66  64  94 CALM      29.77S
LE MARS *      PTCLDY    61  59  94 N6        29.75F
ORANGE CITY *  PTCLDY    63  61  94 CALM      29.76F
SHELDON *      CLEAR     57  55  94 SE3       29.76S
SIOUX CITY     CLOUDY    67  63  87 E6        29.73F
SPENCER        PTCLDY    57  56  96 NE3       29.76F FOG
STORM LAKE *   PTCLDY    63  61  94 SE3       29.77F
$$

IAZ055>058-069>071-079>083-090>094-291200-
   SOUTHWEST IOWA

CITY           SKY/WX    TMP DP  RH WIND       PRES   REMARKS
ATLANTIC *     CLOUDY    72  68  88 S10       29.77S
AUDUBON *      MOCLDY    70  66  88 S8        29.78S
CLARINDA *     CLOUDY    70  68  94 VRB5G13   29.80F
COUNCIL BLFS * CLOUDY    70  70 100 S10       29.77R
CRESTON *      CLOUDY    70  64  83 SW14      29.81R
HARLAN  *      CLOUDY    70  70 100 S10G16    29.80S
LAMONI         CLOUDY    68  64  87 S14       29.81R
RED OAK *      CLOUDY    72  68  88 S8G16     29.79R
SHENANDOAH *     N/A     72  68  88 VRB5G21   29.74F
$$

IAZ047>049-059>061-072>074-084-291200-
   CENTRAL IOWA

CITY           SKY/WX    TMP DP  RH WIND       PRES   REMARKS
AMES           CLOUDY    69  69 100 W9        29.76R
ANKENY *       MOCLDY    72  68  88 W10       29.76S
BOONE *        CLOUDY    68  66  94 SW7       29.76R
CHARITON *     CLOUDY    66  64  94 S10       29.78R
DES MOINES     CLOUDY    71  67  87 SW9       29.75S
GRINNELL*      MOCLDY    64  62  93 SW9       29.78R
KNOXVILLE *    MOCLDY    66  63  88 S8        29.76S
MARSHALLTOWN   CLOUDY    66  66 100 S6        29.75R
NEWTON *       CLOUDY    64  64 100 SW6       29.76S
PELLA *        MOCLDY    66  64  93 S8        29.77F
PERRY *          N/A     67  67  97 SW3       29.77S
$$

IAZ004>006-015-016-023>025-035-036-291200-
   NORTH CENTRAL IOWA

CITY           SKY/WX    TMP DP  RH WIND       PRES   REMARKS
ALGONA *       CLOUDY    61  61 100 NW5       29.76F FOG
CLARION *        N/A     61  61 100 CALM      29.76S FOG
ESTHERVILLE    CLEAR     57  57 100 W5        29.77R
FORT DODGE *   MOCLDY    63  59  88 CALM      29.77S
MASON CITY     CLOUDY    62  60  93 W8        29.77R
FOREST CITY *    N/A     57  50  77 CALM      29.77R
WEBSTER CITY * CLOUDY    64  64 100 CALM      29.74S FOG
IOWA FALLS *     N/A     65  64  96 W5        29.76S FOG
$$

IAZ007>011-017>019-026>030-037>042-050>054-066-291200-
   NORTHEAST IOWA

CITY           SKY/WX    TMP DP  RH WIND       PRES   REMARKS
CEDAR RAPIDS   CLOUDY    66  64  93 SW12G20   29.76R
CHARLES CITY * CLOUDY    63  63 100 CALM      29.74S FOG
CLINTON *      MOCLDY    68  61  78 W18       29.76S
DECORAH *      PTCLDY    64  63  94 VRB3      29.72R
DUBUQUE        MOCLDY    65  62  90 SW10      29.76R
MONTICELLO *   CLOUDY    66  63  88 SW9       29.75R
OELWEIN *      CLOUDY    64  64 100 S7        29.75R
WATERLOO       MOCLDY    66  64  93 SW12      29.74R
$$

IAZ064-065-067-068-078-291200-
   EAST CENTRAL IOWA

CITY           SKY/WX    TMP DP  RH WIND       PRES   REMARKS
IOWA CITY      MOCLDY    69  62  78 SW12G22   29.78S
MT. PLEASANT * CLOUDY    67  60  78 SW14      29.81R
MUSCATINE *    MOCLDY    70  61  73 SW14G23   29.78R
QUAD CITIES    MOCLDY    69  59  70 SW14G22   29.77R
$$

IAZ062-063-075>077-085>089-095>099-291200-
   SOUTHEAST IOWA

CITY           SKY/WX    TMP DP  RH WIND       PRES   REMARKS
BURLINGTON     CLOUDY    67  62  84 SW16G24   29.81R
FAIRFIELD *    MOCLDY    68  61  77 SW16G24   29.79S
FORT MADISON * CLOUDY    66  63  88 SW13      29.82R
KEOKUK *       CLOUDY    66  61  82 SW12      29.81S
OSKALOOSA *      N/A     65  62  91 S12       29.78F
CENTERVILLE *    N/A     64  64 100 S8G17     29.81F
OTTUMWA        CLOUDY    67  64  90 S14G23    29.78S
WASHINGTON *   CLOUDY    68  63  83 SW17G25   29.79S
$$

ABBREVIATIONS USED IN REMARKS
   TC - TEMPERATURES IN CELSIUS
  WCI - WIND CHILL INDEX
   HX - HEAT INDEX
  VSB - VISIBILITY
$$




USA.gov is the U.S. government's official web portal to all federal, state and local government web resources and services.